Regional Weather Roundup
Issued by NWS

Home | Current Version | Previous Version | Graphics & Text | Print | Product List | Glossary On
Versions: 1 2 3 4 5 6 7 8 9 10 11 12 13 14 15 16 17 18 19 20 21 22 23 24 25 26 27
000
ASUS45 KTFX 151110
RWRMT
MONTANA REGIONAL WEATHER ROUNDUP
NATIONAL WEATHER SERVICE GREAT FALLS MT
400 AM MST FRI DEC 15 2017

NOTE: "FAIR" INDICATES FEW OR NO CLOUDS BELOW 12000 FEET WITH NO
SIGNIFICANT WEATHER AND/OR OBSTRUCTIONS TO VISIBILITY.

MTZ001>007-043-151200-
WEST OF THE DIVIDE

CITY           SKY/WX    TMP DP  RH WIND       PRES   REMARKS
KALISPELL      CLOUDY    28  27  96 CALM      30.19F
MISSOULA       FOG       25  24  96 CALM      30.23F VSB 1/2
BUTTE          FAIR       8   4  83 CALM      30.15F
MULLAN PASS    FAIR      26  22  84 VRB7      30.12S WCI  18
ANACONDA         N/A      9   3  78 CALM      30.14F VSB 3/4
DEER LODGE       N/A     14  14 100 CALM      30.19F VSB 0
EUREKA           N/A     25  21  86 MISG      30.19F
HAMILTON         N/A     21  19  93 CALM      30.21F VSB 1/4
LIBBY            N/A     28  27  93 CALM      30.20F
RONAN            N/A     27  23  84 CALM      30.22F
$$

MTZ008-052>055-151200-
SOUTHWEST MONTANA

CITY           SKY/WX    TMP DP  RH WIND       PRES   REMARKS
BOZEMAN        CLOUDY     9   5  84 S6        30.15F FOG     WCI  -1
DILLON         FAIR      23  14  68 S9        30.15F WCI  13
W YELLOWSTONE  CLOUDY    16  14  93 CALM      30.29F
ENNIS          CLOUDY    25  18  74 S22G30    30.21S WCI  10
THREE FORKS      N/A      4  -1  79 CALM      30.12F VSB 0
$$

MTZ009-010-012-014-046-048-049-054-151200-
EAST SLOPES AND CENTRAL MONTANA

CITY           SKY/WX    TMP DP  RH WIND       PRES   REMARKS
CUT BANK       FAIR      42  16  34 W33G43    29.80F
GREAT FALLS    FAIR      41  15  35 SW28      29.89F
MALMSTROM AFB  FAIR      41  17  38 SW24G31   29.89F
HELENA         FOG       17  16  95 CALM      30.15S VSB 1/4
BOWMANS CRNR   MOCLDY    32  19  58 S24       29.92F WCI  19
CHOTEAU          N/A     45  10  24 SW10G17   29.89S
CONRAD           N/A     46  14  27 SW9       29.88
FAIRFIELD      FAIR      39  17  41 S22G29    29.88F WCI  29
POWER          FAIR      39  16  39 SW18      29.87F WCI  30
RAYNESFORD     FAIR      47  13  25 SW25G32   29.87F
ULM            MOCLDY    43  15  32 SW22G30   29.93F
$$

MTZ011-013-016-021-045-047-050-051-151200-
NORTH CENTRAL MONTANA

CITY           SKY/WX    TMP DP  RH WIND       PRES   REMARKS
HAVRE          FAIR      40  20  44 SW23      29.80F
LEWISTOWN      FAIR      27  18  69 SW7       29.86F WCI  19
N BAR RANCH    FAIR      48   7  18 W10       29.85F
CHINOOK          N/A     43  18  36 W9        29.80S
DENTON         FAIR      36  15  42 SW16      29.82F WCI  27
GEYSER         FAIR      40  16  37 W17       29.85F
GRASS RANGE    MOCLDY    42  14  31 W15       29.80F
STANFORD       FAIR      44  15  31 W17       29.86F
WINIFRED       FAIR      40  15  34 W13       29.82F
$$

MTZ017>020-022>027-061-062-151200-
NORTHEAST MONTANA

CITY           SKY/WX    TMP DP  RH WIND       PRES   REMARKS
GLASGOW        FAIR      23  21  92 NW5       29.78F
GLENDIVE       FAIR      27  22  81 S12       29.81F WCI  17
JORDAN           N/A     31  20  63 W10       29.81F WCI  22
SIDNEY         FAIR      27  23  85 S9        29.78F WCI  18
WOLF POINT     FAIR      24  20  84 W8        29.77F WCI  15
MALTA          CLEAR     21  19  93 CALM      29.78F
PLENTYWOOD       N/A     27  23  86 CALM      29.73F
POPLAR           N/A     25  21  86 W5        29.77F
$$

MTZ028>42-056>058-151200-
SOUTHCENTRAL AND SOUTHEAST MONTANA

CITY           SKY/WX    TMP DP  RH WIND       PRES   REMARKS
BAKER          FAIR      29  23  78 W14       29.84F WCI  18
BILLINGS       FAIR      35  19  52 SW25      29.91F WCI  23
LIVINGSTON     FAIR      36  19  50 SW37G47   30.00F WCI  22
MILES CITY     FAIR      23  20  88 S6        29.86F WCI  16
BIG TIMBER     CLEAR     41  12  30 W48G55    29.96F
FORSYTH          N/A     34  19  55 W5        29.86F
LAUREL           N/A     34  18  51 SW16      29.94F WCI  23
$$

REGIONAL REPORTS...DAKOTAS

CITY           SKY/WX    TMP DP  RH WIND       PRES   REMARKS
WILLISTON      FAIR      28  24  85 S3        29.78F
MINOT          CLOUDY    30  23  75 SW7       29.80F WCI  23
DICKINSON      CLOUDY    27  23  85 SW6       29.79F WCI  20
BEACH          MOCLDY    28  23  80 SW10      29.83F WCI  19
CROSBY         CLOUDY    28  25  86 S10       29.75F WCI  19
TIOGA          CLOUDY    27  27 100 SW12      29.78F WCI  16
WATFORD CITY   MOCLDY    28  25  86 SE5       29.79F
BISMARCK       MOCLDY    28  23  81 W5        29.88F
GRAND FORKS    CLOUDY    19  13  77 E3        29.91F
FARGO          CLOUDY    20  17  88 N3        29.92F
BUFFALO SD       N/A     29  22  75 W12       29.79F WCI  19
RAPID CITY     FAIR      17  10  74 CALM      29.91F
$$

REGIONAL REPORTS...WYOMING/IDAHO/WASHINGTON

CITY           SKY/WX    TMP DP  RH WIND       PRES   REMARKS
GILLETTE       FAIR      32  14  47 SW12      29.93F WCI  23
SHERIDAN       FAIR      23  13  65 SE3       29.92F
BUFFALO WY     FAIR      33   3  28 SW7       29.94F WCI  27
CODY           FAIR      34  11  38 W7G24     30.01F WCI  28
YELLOWSTONE LA   N/A      8   5  87 CALM      30.27F
IDAHO FALLS    FOG       18  17  96 CALM      30.37F VSB 1/2
SALMON         CLOUDY    30  23  75 S10       30.35F WCI  21
BOISE          CLOUDY    26  23  88 SE8       30.39F WCI  18
SPOKANE        LGT SNOW  29  29 100 CALM      30.25F FOG
$$

REGIONAL REPORTS...ALBERTA

CITY           SKY/WX    TMP DP  RH WIND       PRES   REMARKS
EDMONTON       LGT RAIN  36  30  80 W12       29.68F WCI  27
CALGARY        MOCLDY    48  16  27 W18G26    29.69F
LETHBRIDGE     MOCLDY    48  19  32 W32G48    29.75F
MEDICINE HAT   CLEAR     32  21  64 SW13      29.74F WCI  22
$$

REGIONAL REPORTS...SASKATCHEWAN

CITY           SKY/WX    TMP DP  RH WIND       PRES   REMARKS
SWIFT CURRENT  MOCLDY    34  21  60 W15G21    29.68F WCI  24
REGINA         CLOUDY    28  27  93 SE7       29.68F WCI  21
SASKATOON      CLOUDY    32  28  86 SW10      29.62F WCI  24
$$




USA.gov is the U.S. government's official web portal to all federal, state and local government web resources and services.